SWR1108 LSZH-EDDM

Flight info

Callsign SWR1108
Flight time 0h 37m
Altitude 20000
Route DEGES Z6 NUNRI/N0363F190 T103 BETOS BETOS1A
Aircraft A20N/M-SDE2E3FGHIRWXY/LB1

Departure

Time 2026-05-04 11:37
Airport Zürich Airport (LSZH)

Arrival

Time 2026-05-04 12:14
Airport Munich Airport (EDDM)
Time Latitude Longitude Altitude Speed Heading
2026-05-04 11:05 47.46194 8.55188 1400 ft 0 kts 186°
2026-05-04 11:27 47.46275 8.55232 1401 ft 0 kts 276°
2026-05-04 11:31 47.46324 8.54739 1407 ft 18 kts 315°
2026-05-04 11:33 47.47551 8.53903 1404 ft 24 kts 335°
2026-05-04 11:33 47.47608 8.53785 1403 ft 0 kts 270°
2026-05-04 11:35 47.47608 8.53771 1406 ft 7 kts 269°
2026-05-04 11:35 47.47570 8.53648 1401 ft 17 kts 226°
2026-05-04 11:36 47.47503 8.53639 1402 ft 0 kts 156°
2026-05-04 11:36 47.47495 8.53644 1405 ft 11 kts 156°
2026-05-04 11:36 47.47233 8.53825 1403 ft 74 kts 154°
2026-05-04 11:36 47.46573 8.54280 1400 ft 134 kts 154°
2026-05-04 11:37 47.45569 8.54955 1438 ft 177 kts 154°
2026-05-04 11:37 47.44415 8.55725 1822 ft 185 kts 153°
2026-05-04 11:37 47.43279 8.56592 2462 ft 180 kts 142°
2026-05-04 11:37 47.42729 8.58152 3269 ft 179 kts 91°
2026-05-04 11:38 47.43150 8.59964 3663 ft 203 kts 54°
2026-05-04 11:38 47.44098 8.61657 4187 ft 222 kts 49°
2026-05-04 11:38 47.45117 8.63428 5024 ft 228 kts 52°
2026-05-04 11:38 47.45941 8.65435 5862 ft 233 kts 75°
2026-05-04 11:39 47.46233 8.67840 6556 ft 248 kts 86°
2026-05-04 11:39 47.46352 8.70481 6880 ft 273 kts 89°
2026-05-04 11:40 47.45921 8.87978 10129 ft 294 kts 104°
2026-05-04 11:41 47.45471 8.91015 10603 ft 314 kts 104°
2026-05-04 11:41 47.44992 8.94282 10988 ft 336 kts 104°
2026-05-04 11:41 47.44499 8.97686 11542 ft 349 kts 104°
2026-05-04 11:41 47.43990 9.01232 12300 ft 356 kts 104°
2026-05-04 11:42 47.43469 9.04853 13079 ft 362 kts 104°
2026-05-04 11:42 47.42942 9.08510 13887 ft 366 kts 104°
2026-05-04 11:42 47.42406 9.12218 14619 ft 371 kts 104°
2026-05-04 11:42 47.41890 9.15965 15390 ft 375 kts 101°
2026-05-04 11:43 47.41814 9.19833 16169 ft 382 kts 85°
2026-05-04 11:43 47.42553 9.23629 16908 ft 389 kts 70°
2026-05-04 11:43 47.43710 9.27285 17633 ft 395 kts 64°
2026-05-04 11:43 47.45052 9.30817 18307 ft 401 kts 61°
2026-05-04 11:44 47.46504 9.34364 18903 ft 405 kts 60°
2026-05-04 11:44 47.47987 9.37936 19502 ft 409 kts 60°
2026-05-04 11:44 47.49463 9.41537 19872 ft 411 kts 60°
2026-05-04 11:44 47.50928 9.45187 19990 ft 416 kts 61°
2026-05-04 11:45 47.52394 9.48910 19990 ft 419 kts 62°
2026-05-04 11:45 47.53850 9.52660 19994 ft 419 kts 62°
2026-05-04 11:45 47.55299 9.56421 19992 ft 420 kts 62°
2026-05-04 11:45 47.56740 9.60186 19991 ft 419 kts 63°
2026-05-04 11:46 47.57877 9.64138 19993 ft 416 kts 76°
2026-05-04 11:46 47.58358 9.68289 19992 ft 412 kts 88°
2026-05-04 11:46 47.58467 9.72526 19994 ft 411 kts 93°
2026-05-04 11:46 47.58387 9.76765 19991 ft 411 kts 96°
2026-05-04 11:47 47.58209 9.80991 19986 ft 410 kts 97°
2026-05-04 11:47 47.57993 9.85205 19994 ft 411 kts 97°
2026-05-04 11:47 47.57772 9.89418 19988 ft 410 kts 97°
2026-05-04 11:47 47.57561 9.93631 19982 ft 410 kts 97°
2026-05-04 11:48 47.57362 9.97850 19985 ft 410 kts 96°
2026-05-04 11:48 47.57173 10.02069 19987 ft 410 kts 96°
2026-05-04 11:48 47.56991 10.06288 19990 ft 410 kts 96°
2026-05-04 11:48 47.56812 10.10493 19993 ft 409 kts 96°
2026-05-04 11:49 47.56634 10.14658 19994 ft 409 kts 96°
2026-05-04 11:49 47.56455 10.18828 19994 ft 409 kts 96°
2026-05-04 11:49 47.56274 10.23030 20001 ft 409 kts 96°
2026-05-04 11:49 47.56089 10.27237 19997 ft 409 kts 96°
2026-05-04 11:50 47.55965 10.30023 20001 ft 409 kts 96°
2026-05-04 11:50 47.55777 10.34229 20004 ft 408 kts 96°
2026-05-04 11:50 47.55586 10.38414 20003 ft 408 kts 97°
2026-05-04 11:50 47.55393 10.42605 20006 ft 410 kts 96°
2026-05-04 11:51 47.55191 10.46924 20003 ft 430 kts 96°
2026-05-04 11:51 47.55053 10.51439 19997 ft 450 kts 90°
2026-05-04 11:51 47.55566 10.56094 19999 ft 465 kts 74°
2026-05-04 11:51 47.56775 10.60573 20008 ft 469 kts 66°
2026-05-04 11:52 47.58265 10.64799 20003 ft 470 kts 62°
2026-05-04 11:52 47.59943 10.68986 20000 ft 471 kts 59°
2026-05-04 11:52 47.61677 10.73104 19996 ft 471 kts 59°
2026-05-04 11:52 47.63428 10.77236 19998 ft 471 kts 59°
2026-05-04 11:53 47.65144 10.81334 19991 ft 461 kts 59°
2026-05-04 11:53 47.66777 10.85287 19997 ft 438 kts 59°
2026-05-04 11:53 47.68582 10.88788 20001 ft 419 kts 47°
2026-05-04 11:53 47.70647 10.91774 19782 ft 411 kts 43°
2026-05-04 11:55 47.84761 11.08699 15104 ft 409 kts 39°
2026-05-04 11:55 47.86874 11.11199 14458 ft 407 kts 39°
2026-05-04 11:56 47.89078 11.13815 13813 ft 404 kts 39°
2026-05-04 11:56 47.91247 11.16395 13393 ft 393 kts 39°
2026-05-04 11:56 47.93383 11.18938 12710 ft 391 kts 39°
2026-05-04 11:56 47.95500 11.21462 12039 ft 388 kts 39°
2026-05-04 11:57 47.97602 11.23972 11437 ft 385 kts 39°
2026-05-04 11:57 47.99662 11.26440 11193 ft 372 kts 39°
2026-05-04 11:57 48.01624 11.28785 11063 ft 358 kts 40°
2026-05-04 11:57 48.03535 11.31073 10875 ft 345 kts 39°
2026-05-04 11:58 48.05374 11.33285 10735 ft 332 kts 41°
2026-05-04 11:58 48.06862 11.35794 10558 ft 317 kts 61°
2026-05-04 11:58 48.07766 11.38734 10325 ft 307 kts 71°
2026-05-04 11:58 48.08505 11.41728 9904 ft 307 kts 72°
2026-05-04 11:59 48.09213 11.44729 9445 ft 305 kts 72°
2026-05-04 11:59 48.09920 11.47708 9051 ft 301 kts 72°
2026-05-04 11:59 48.10615 11.50625 8841 ft 295 kts 72°
2026-05-04 11:59 48.11291 11.53452 8742 ft 286 kts 72°
2026-05-04 12:00 48.11959 11.56231 8535 ft 279 kts 72°
2026-05-04 12:00 48.12598 11.58889 8406 ft 269 kts 72°
2026-05-04 12:00 48.13222 11.61489 8209 ft 264 kts 72°
2026-05-04 12:00 48.13838 11.64066 7977 ft 260 kts 72°
2026-05-04 12:01 48.14444 11.66574 7819 ft 255 kts 71°
2026-05-04 12:01 48.15284 11.68913 7665 ft 257 kts 53°
2026-05-04 12:02 48.23226 11.65644 6264 ft 234 kts 293°
2026-05-04 12:03 48.23918 11.63413 5921 ft 235 kts 293°
2026-05-04 12:03 48.24598 11.61185 5650 ft 233 kts 294°
2026-05-04 12:03 48.25267 11.59016 5487 ft 225 kts 295°
2026-05-04 12:03 48.25931 11.56900 5128 ft 223 kts 296°
2026-05-04 12:04 48.26596 11.54791 4828 ft 225 kts 296°
2026-05-04 12:04 48.27258 11.52703 4544 ft 224 kts 297°
2026-05-04 12:04 48.27922 11.50598 4328 ft 222 kts 297°
2026-05-04 12:04 48.28578 11.48527 4086 ft 218 kts 296°
2026-05-04 12:05 48.29221 11.46479 3971 ft 215 kts 296°
2026-05-04 12:05 48.29861 11.44451 3814 ft 212 kts 296°
2026-05-04 12:05 48.30491 11.42445 3580 ft 212 kts 297°
2026-05-04 12:05 48.31137 11.40435 3470 ft 211 kts 298°
2026-05-04 12:06 48.31938 11.38636 3226 ft 208 kts 314°
2026-05-04 12:06 48.33076 11.37332 3044 ft 206 kts 336°
2026-05-04 12:06 48.34415 11.36732 2954 ft 193 kts 356°
2026-05-04 12:06 48.35722 11.36838 2991 ft 187 kts 15°
2026-05-04 12:07 48.36917 11.37560 2986 ft 185 kts 33°
2026-05-04 12:07 48.37885 11.38817 2985 ft 184 kts 50°
2026-05-04 12:07 48.38532 11.40461 2981 ft 182 kts 68°
2026-05-04 12:07 48.38796 11.42280 2986 ft 177 kts 86°
2026-05-04 12:08 48.38680 11.44110 3011 ft 176 kts 104°
2026-05-04 12:08 48.38209 11.45799 2997 ft 176 kts 119°
2026-05-04 12:08 48.37434 11.47176 2947 ft 169 kts 137°
2026-05-04 12:08 48.36462 11.48123 3004 ft 169 kts 152°
2026-05-04 12:09 48.35395 11.48872 2992 ft 168 kts 152°
2026-05-04 12:09 48.34665 11.50075 2879 ft 154 kts 101°
2026-05-04 12:09 48.34630 11.51651 2919 ft 152 kts 92°
2026-05-04 12:09 48.34578 11.53240 3041 ft 152 kts 89°
2026-05-04 12:10 48.34624 11.54833 3002 ft 155 kts 85°
2026-05-04 12:10 48.34724 11.56441 2962 ft 154 kts 83°
2026-05-04 12:10 48.34842 11.58032 2981 ft 154 kts 83°
2026-05-04 12:10 48.34963 11.59636 2974 ft 152 kts 82°
2026-05-04 12:11 48.35078 11.61162 2985 ft 146 kts 83°
2026-05-04 12:11 48.35192 11.62683 3003 ft 147 kts 81°
2026-05-04 12:11 48.35310 11.64203 2960 ft 143 kts 82°
2026-05-04 12:11 48.35421 11.65683 3040 ft 142 kts 85°
2026-05-04 12:12 48.35538 11.67168 2855 ft 144 kts 82°
2026-05-04 12:12 48.35652 11.68652 2590 ft 142 kts 82°
2026-05-04 12:12 48.35764 11.70130 2388 ft 142 kts 80°
2026-05-04 12:12 48.35877 11.71572 2176 ft 137 kts 81°
2026-05-04 12:13 48.35986 11.72987 2009 ft 135 kts 81°
2026-05-04 12:14 48.36489 11.79557 1468 ft 32 kts 84°